Showing default

EXPLORER 11, 107

Orbit data source: Space-Track

EXPLORER 11, 107 is a payload satellite owned by GSFC (US) in LEO that was launched on Thu, 27 Apr 1961 UTC via a JUNO II launch vehicle from the Air Force Eastern Test Range (AFETR). Payload-class satellites include a variety of spacecraft equipped with specific instruments for various scientific and technological missions. These include communications satellites like Starlink; space stations such as the ISS; scientific satellites like the Hubble; Earth observation satellites from companies like Planet Labs, Umbra, and HawkEye 360; GPS; miniature CubeSats for education and research; and military/defense satellites.

Loading next visibility...
Identifier
107, 1961-013A
Orbit
LEO
Country
Flag of USUS
Related business
Manufacturer
NASA MSFC
Mission
Spacecraft
Bus & Motor
S-15, Unknown motor
Mass
45 kg wet, 40 kg dry
Launch date (UTC)
1961-04-27 (65 years ago)
Launch vehicle
JUNO II
Launch site
Air Force Eastern Test Range (AFETR)
Object type
Payload
Rocket body
Debris
Shape & HBR
Unknown
Radar Cross Section
Medium (>0.1 m² and <1 m²)

Expand to show TLE details & history
Last TLE update: 23 hours ago

TLE from 23 hours ago
0 EXPLORER 11
1 00107U 61013A   25315.21671094  .00003414  00000-0  39983-3 0  9992
2 00107  28.7862 132.1002 0499487 254.2994 100.1950 14.20851608245459
Epoch: 2025-11-11T05:12Z
TLE epoch observation values (Epoch: 2025-11-11T05:12:03.825Z)
Latitude
0.00002°
Longitude
3.47785°
Altitude
901.614 km
Speed
7.362 km/s
True Right ascension
08h 48m 24s
True Declination
0° 00' 00"
Sunlit
Object was in daylight at epoch
Visualization orbit readout
Latitude
Unknown
Longitude
Unknown
Altitude
Unknown
Speed
Unknown
Apparent Right ascension
Unknown
Apparent Declination
Unknown
Sunlit
N/A
Visualization observer readout
Local Sidereal Time
01:05:29
Azimuth
Unknown
Elevation
Unknown
Doppler factor
Unknown
Orbital elements
Apogee altitude
1,186.346 km
Perigee altitude
466.623 km
Semi-major axis
7,204.621 km
Eccentricity
0.04995
Inclination
28.7862°
RAAN
132.1002°
Arg. of periapsis
254.2994°
True anomaly
105.75799°
Mean anomaly
100.195°
Eccentric anomaly
102.98368°
Mean motion
3.54917 °/min
Orbital period
101.43 mins
BSTAR
0.00039983
Loading maneuver chart data...
Computing Atmospheric mass density...
Loading historical data...
Loading historical data...
Loading historical data...
Loading historical data...
Loading historical data...
Loading historical data...
Loading historical data...
Other satellites on launch #13 in the year 1961 (1961-04-27 UTC)

Documentation

Showing up to 5 results
|